Weather History for Blackwell, OK

Change the Weather History Date:

Saturday, February 2, 2013

  Actual Average (KPNC) Record (KPNC)
Temperature  
Mean Temperature 41 °F -  
Max Temperature 59 °F 45 °F 72 °F (2003)
Min Temperature 23 °F 25 °F 1 °F (2011)
Degree Days  
Heating Degree Days 24    
Moisture  
Dew Point 24 °F    
Average Humidity 57    
Maximum Humidity 80    
Minimum Humidity 23    
Precipitation  
Precipitation 0.00 in - - ()
Sea Level Pressure  
Sea Level Pressure 30.22 in    
Wind  
Wind Speed 6 mph (WNW)    
Max Wind Speed 18 mph    
Max Gust Speed 24 mph    
Visibility 10 miles    
Events      
Averages and records for this station are not official NWS values.
T = Trace of Precipitation, MM = Missing Value Source: NWS Daily Summary

Daily Weather History Graph

Daily Weather History Graph

Search for Another Location

Airport:

Trip Planner

Search our weather history database for the weather conditions in past years. The results will help you decide how hot, cold, wet, or windy it might be!

Date:

Astronomy

Feb. 02, 2013 Rise Set
Actual Time 7:30 AM CST 5:56 PM CST
Civil Twilight 7:03 AM CST 6:23 PM CST
Nautical Twilight 6:32 AM CST 6:54 PM CST
Astronomical Twilight 6:01 AM CST 7:24 PM CST
Moon No Moon Rise 10:53 AM CST (2/2)
Length of Visible Light 11h 20m
Length of Day
10h 26m
Waning Gibbous, 59% of the Moon is Illuminated
Feb 2
Waning Gibbous
Feb 3
Last Quarter
Feb 10
New
Feb 17
First Quarter
Feb 25
Full

Hourly Weather History & Observations

Time (CST) Temp. Windchill Dew Point Humidity Pressure Visibility Wind Dir Wind Speed Gust Speed Precip Events Conditions
12:15 AM 28.4 °F - 19.4 °F 69% 30.16 in 10.0 mi Calm Calm - N/A   Clear
12:35 AM 28.4 °F - 17.6 °F 64% 30.16 in 10.0 mi Calm Calm - N/A   Clear
12:55 AM 28.4 °F - 17.6 °F 64% 30.16 in 10.0 mi Calm Calm - N/A   Partly Cloudy
1:15 AM 24.8 °F - 19.4 °F 80% 30.16 in 10.0 mi Calm Calm - N/A   Clear
1:35 AM 26.6 °F - 19.4 °F 74% 30.16 in 10.0 mi Calm Calm - N/A   Clear
1:55 AM 26.6 °F - 19.4 °F 74% 30.16 in 10.0 mi Calm Calm - N/A   Clear
2:15 AM 24.8 °F - 19.4 °F 80% 30.16 in 10.0 mi Calm Calm - N/A   Clear
2:35 AM 24.8 °F - 19.4 °F 80% 30.16 in 10.0 mi Calm Calm - N/A   Clear
2:55 AM 24.8 °F - 19.4 °F 80% 30.16 in 10.0 mi Calm Calm - N/A   Clear
3:15 AM 24.8 °F 19.1 °F 19.4 °F 80% 30.17 in 10.0 mi NW 4.6 mph - N/A   Clear
3:35 AM 24.8 °F 16.9 °F 19.4 °F 80% 30.17 in 10.0 mi NW 6.9 mph - N/A   Clear
3:55 AM 26.6 °F 21.2 °F 17.6 °F 69% 30.17 in 10.0 mi NW 4.6 mph - N/A   Clear
4:15 AM 23.0 °F 17.0 °F 17.6 °F 80% 30.17 in 10.0 mi SW 4.6 mph - N/A   Clear
4:35 AM 23.0 °F 18.4 °F 17.6 °F 80% 30.17 in 10.0 mi WSW 3.5 mph - N/A   Clear
4:55 AM 24.8 °F 19.1 °F 17.6 °F 74% 30.16 in 10.0 mi West 4.6 mph - N/A   Clear
5:15 AM 24.8 °F 17.9 °F 17.6 °F 74% 30.17 in 10.0 mi West 5.8 mph - N/A   Clear
5:35 AM 26.6 °F 17.5 °F 17.6 °F 69% 30.18 in 10.0 mi West 9.2 mph - N/A   Clear
5:55 AM 26.6 °F 17.5 °F 17.6 °F 69% 30.19 in 10.0 mi WNW 9.2 mph - N/A   Clear
6:15 AM 28.4 °F 19.1 °F 19.4 °F 69% 30.19 in 10.0 mi WNW 10.4 mph - N/A   Clear
6:35 AM 26.6 °F 19.1 °F 19.4 °F 74% 30.19 in 10.0 mi WNW 6.9 mph - N/A   Clear
6:55 AM 26.6 °F 18.2 °F 19.4 °F 74% 30.20 in 10.0 mi WNW 8.1 mph - N/A   Clear
7:15 AM 24.8 °F 16.1 °F 19.4 °F 80% 30.21 in 10.0 mi WNW 8.1 mph - N/A   Clear
7:35 AM 26.6 °F 19.1 °F 19.4 °F 74% 30.22 in 10.0 mi WNW 6.9 mph - N/A   Clear
7:55 AM 26.6 °F 20.0 °F 19.4 °F 74% 30.21 in 10.0 mi West 5.8 mph - N/A   Clear
8:15 AM 26.6 °F 20.0 °F 21.2 °F 80% 30.22 in 10.0 mi West 5.8 mph - N/A   Clear
8:35 AM 28.4 °F 21.2 °F 23.0 °F 80% 30.24 in 10.0 mi West 6.9 mph - N/A   Clear
8:55 AM 32.0 °F 24.2 °F 24.8 °F 75% 30.26 in 10.0 mi NW 9.2 mph - N/A   Clear
9:15 AM 35.6 °F 28.0 °F 28.4 °F 75% 30.27 in 10.0 mi NW 10.4 mph - N/A   Clear
9:35 AM 41.0 °F 33.9 °F 30.2 °F 65% 30.27 in 10.0 mi NNW 12.7 mph - N/A   Clear
9:55 AM 41.0 °F 33.9 °F 32.0 °F 70% 30.28 in 10.0 mi NNW 12.7 mph - N/A   Clear
10:15 AM 42.8 °F 36.2 °F 32.0 °F 66% 30.28 in 10.0 mi North 12.7 mph - N/A   Clear
10:35 AM 44.6 °F 38.4 °F 32.0 °F 61% 30.28 in 10.0 mi NNW 12.7 mph - N/A   Clear
10:55 AM 46.4 °F 41.5 °F 32.0 °F 57% 30.29 in 10.0 mi North 10.4 mph - N/A   Clear
11:15 AM 48.2 °F - 32.0 °F 54% 30.29 in 10.0 mi NNW 6.9 mph - N/A   Clear
11:35 AM 48.2 °F - 32.0 °F 54% 30.28 in 10.0 mi NW 6.9 mph - N/A   Clear
11:55 AM 50.0 °F - 32.0 °F 50% 30.28 in 10.0 mi NW 8.1 mph - N/A   Clear
12:15 PM 51.8 °F - 32.0 °F 47% 30.27 in 10.0 mi North 6.9 mph - N/A   Clear
12:35 PM 53.6 °F - 32.0 °F 44% 30.26 in 10.0 mi NNW 15.0 mph - N/A   Clear
12:55 PM 55.4 °F - 30.2 °F 38% 30.25 in 10.0 mi WNW 13.8 mph 20.7 mph N/A   Clear
1:15 PM 55.4 °F - 30.2 °F 38% 30.24 in 10.0 mi WNW 11.5 mph 20.7 mph N/A   Clear
1:35 PM 57.2 °F - 30.2 °F 36% 30.24 in 10.0 mi NW 13.8 mph 17.3 mph N/A   Clear
1:55 PM 57.2 °F - 28.4 °F 33% 30.23 in 10.0 mi NW 15.0 mph 20.7 mph N/A   Clear
2:15 PM 57.2 °F - 28.4 °F 33% 30.22 in 10.0 mi NW 12.7 mph - N/A   Clear
2:35 PM 57.2 °F - 28.4 °F 33% 30.22 in 10.0 mi WNW 13.8 mph 19.6 mph N/A   Clear
2:55 PM 59.0 °F - 28.4 °F 31% 30.21 in 10.0 mi WNW 10.4 mph 20.7 mph N/A   Clear
3:15 PM 59.0 °F - 26.6 °F 29% 30.21 in 10.0 mi NW 13.8 mph 20.7 mph N/A   Clear
3:35 PM 59.0 °F - 24.8 °F 27% 30.21 in 10.0 mi NW 16.1 mph 20.7 mph N/A   Clear
3:55 PM 59.0 °F - 23.0 °F 25% 30.22 in 10.0 mi NW 15.0 mph 23.0 mph N/A   Clear
4:15 PM 59.0 °F - 21.2 °F 23% 30.22 in 10.0 mi NW 17.3 mph 24.2 mph N/A   Clear
4:35 PM 59.0 °F - 23.0 °F 25% 30.22 in 10.0 mi WNW 18.4 mph 23.0 mph N/A   Clear
4:55 PM 57.2 °F - 23.0 °F 27% 30.22 in 10.0 mi NW 16.1 mph 19.6 mph N/A   Clear
5:15 PM 57.2 °F - 23.0 °F 27% 30.23 in 10.0 mi NW 11.5 mph - N/A   Clear
5:35 PM 55.4 °F - 24.8 °F 31% 30.23 in 10.0 mi NW 9.2 mph - N/A   Clear
5:55 PM 50.0 °F - 24.8 °F 37% 30.23 in 10.0 mi WNW 8.1 mph - N/A   Clear
6:15 PM 48.2 °F - 23.0 °F 37% 30.23 in 10.0 mi WNW 9.2 mph - N/A   Clear
6:35 PM 44.6 °F 40.2 °F 23.0 °F 43% 30.23 in 10.0 mi West 8.1 mph - N/A   Clear
6:55 PM 44.6 °F 39.2 °F 23.0 °F 43% 30.24 in 10.0 mi WNW 10.4 mph - N/A   Clear
7:15 PM 42.8 °F 37.5 °F 23.0 °F 46% 30.24 in 10.0 mi WNW 9.2 mph - N/A   Clear
7:35 PM 41.0 °F 35.8 °F 23.0 °F 49% 30.25 in 10.0 mi WNW 8.1 mph - N/A   Clear
7:55 PM 39.2 °F 32.5 °F 23.0 °F 52% 30.25 in 10.0 mi WNW 10.4 mph - N/A   Clear
8:15 PM 39.2 °F 33.6 °F 23.0 °F 52% 30.25 in 10.0 mi WNW 8.1 mph - N/A   Clear
8:35 PM 39.2 °F 33.6 °F 23.0 °F 52% 30.25 in 10.0 mi West 8.1 mph - N/A   Clear
8:55 PM 39.2 °F 33.0 °F 23.0 °F 52% 30.26 in 10.0 mi West 9.2 mph - N/A   Clear
9:15 PM 37.4 °F 31.4 °F 23.0 °F 56% 30.26 in 10.0 mi WSW 8.1 mph - N/A   Clear
9:35 PM 35.6 °F 29.2 °F 23.0 °F 60% 30.26 in 10.0 mi WSW 8.1 mph - N/A   Clear
9:55 PM 35.6 °F 28.6 °F 23.0 °F 60% 30.25 in 10.0 mi West 9.2 mph - N/A   Clear
10:15 PM 35.6 °F 28.0 °F 23.0 °F 60% 30.25 in 10.0 mi West 10.4 mph - N/A   Clear
10:35 PM 35.6 °F 27.5 °F 23.0 °F 60% 30.25 in 10.0 mi West 11.5 mph - N/A   Clear
10:55 PM 33.8 °F 25.8 °F 23.0 °F 65% 30.25 in 10.0 mi West 10.4 mph - N/A   Clear
11:15 PM 35.6 °F 27.5 °F 23.0 °F 60% 30.25 in 10.0 mi West 11.5 mph - N/A   Clear
11:35 PM 35.6 °F 27.5 °F 23.0 °F 60% 30.25 in 10.0 mi West 11.5 mph - N/A   Clear
11:55 PM 35.6 °F 28.0 °F 23.0 °F 60% 30.26 in 10.0 mi WNW 10.4 mph - N/A   Clear